Location: DaVinci Observatory
(43.1080°N, 78.6453°W)
Time: 05:27:36
(UTC-04:00)

Envisat - Pass Details

Date: 13 October 2017
Orbit: 764 x 766 km, 98.2° (Epoch: 17 October)

Event Time Altitude Azimuth Distance (km) Brightness Sun altitude
Exits shadow 22:37:12 11° 284° (WNW) 2,204 5.9 -43.1°
Drops below altitude 10° 22:38:07 10° 294° (WNW) 2,306 6.1 -43.2°
Sets 22:42:04 0° 325° (NW) 3,239 7.0 -43.8°
